{"data":{"norad_id":67953,"epoch":"2026-09-19T22:17:00.575232Z","epoch_age_seconds":112629,"freshness":"FRESH","line1":"1 67953U 26037X   26262.92847888  .00011843  00000+0  43908-3 0  9993","line2":"2 67953  43.0022 174.0686 0001125 273.8239  86.2484 15.27588805 33049","mean_motion":15.27588805,"eccentricity":0.0001125,"inclination_deg":43.0022,"raan_deg":174.0686,"arg_perigee_deg":273.8239,"mean_anomaly_deg":86.2484,"bstar":0.00043908,"rev_number":3304,"period_min":94.266205361462,"perigee_km":482.25085035899,"apogee_km":483.79461129843,"semimajor_km":6861.1597308287,"source":"CELESTRAK","updated_at":"2026-09-20T09:00:43.711263Z"}}